#timestamp,LO_Frequency,Hit,StdDev 
1593457215.1,286047000.5,N
1593457235.9,286047000.7,N
1593457255.7,286047002.5,N
1593457275.5,286047001.7,N
1593457295.4,286047002.0,N
1593457315.2,286047001.5,N
1593457335.1,286047003.9,Y
1593457336.0,286047003.9,P
1593457355.8,286046999.7,N
1593457375.6,286046998.1,N
1593457395.5,286047000.4,N
1593457415.3,286047000.0,N
1593457435.2,286047001.2,N
1593457455.9,286047001.1,N
1593457475.7,286046998.1,N
1593457495.6,286047001.0,N
1593457515.4,286047001.1,N
1593457535.2,286047000.4,N
1593457555.1,286047002.7,N
1593457556.0,286047002.7,N
1593457575.8,286047001.4,N
1593457595.7,286046999.8,N
1593457615.5,286047002.0,N
1593457635.3,286047001.6,N
1593457655.2,286047002.3,N
1593457675.9,286047000.0,N
1593457695.7,286047000.2,N
1593457715.6,286047000.9,N
1593457735.4,286047000.1,N
1593457755.2,286046999.7,N
1593457775.1,286047000.0,N
1593457776.0,286047000.0,N
1593457795.8,286047000.6,N
1593457815.7,286047002.5,N
1593457835.5,286047002.2,N
1593457855.3,286046999.9,N
1593457875.2,286047000.0,N
1593457895.0,286047002.6,N
1593457895.9,286047002.6,N
1593457915.7,286047001.6,N
1593457935.6,286047004.0,Y
1593457955.4,286047002.8,P
1593457975.3,286046999.8,N
1593457995.1,286046999.8,N
1593457996.0,286046999.8,N
1593458015.8,286046998.1,N
1593458035.7,286046998.1,N
1593458055.5,286047001.0,N
1593458075.3,286047000.5,N
1593458095.2,286047001.0,N
1593458115.0,286046999.8,N
1593458115.9,286046999.8,N
1593458135.8,286046999.9,N
1593458155.6,286047000.5,N
1593458175.4,286047000.9,N
1593458195.3,286047000.6,N
1593458215.1,286046998.2,N
1593458235.8,286047000.0,N
1593458255.7,286047000.5,N
1593458275.5,286047001.1,N
1593458295.4,286047000.6,N
1593458315.2,286047000.8,N
1593458335.0,286046998.1,N
1593458335.9,286046998.1,N
1593458355.8,286046998.1,N
1593458375.6,286046998.6,N
1593458395.4,286047000.8,N
1593458415.3,286047001.1,N
1593458435.1,286046998.2,N
1593458455.9,286046998.5,N
1593458475.7,286046998.6,N
1593458495.5,286047002.8,N
1593458515.4,286046999.8,N
1593458535.2,286047002.5,N
1593458555.0,286047002.1,N
1593458556.0,286047002.1,N
1593458575.8,286047002.3,N
1593458595.6,286047002.0,N
1593458615.5,286047002.8,N
1593458635.3,286047002.5,N
1593458655.1,286047001.5,N
1593458675.9,286047001.3,N
1593458695.7,286047003.5,N
1593458715.6,286047003.3,N
1593458735.4,286047004.3,N
1593458755.2,286047001.4,N
1593458775.1,286047004.4,N
1593458776.0,286047004.4,N
1593458795.8,286047001.7,N
1593458815.7,286047001.3,N
1593458835.5,286047003.9,N
1593458855.3,286047001.9,N
1593458875.2,286047001.6,N
1593458895.9,286047001.6,N
1593458915.7,286047001.3,N
1593458935.6,286047004.0,N
1593458955.4,286047003.9,N
1593458975.2,286047003.5,N
1593458995.1,286047002.9,N
1593458996.0,286047002.9,N
1593459015.8,286047003.7,N
1593459035.7,286047004.0,Y
1593459055.5,286047000.3,P
1593459075.3,286046999.8,N
1593459095.2,286047002.4,N
1593459115.0,286047000.8,N
1593459115.9,286047000.8,N
1593459135.8,286046998.2,N
1593459155.6,286047000.9,N
1593459175.4,286046998.5,N
1593459195.3,286046998.1,N
1593459215.1,286046998.4,N
1593459235.8,286046998.7,N
1593459255.7,286046998.2,N
1593459275.5,286046998.8,N
1593459295.4,286046999.6,N
1593459315.2,286046996.8,N
1593459335.0,286046997.2,N
1593459335.9,286046997.2,N
1593459355.8,286046998.7,N
1593459375.6,286046998.2,N
1593459395.4,286047001.2,N
1593459415.3,286046998.8,N
1593459435.1,286046999.0,N
1593459455.9,286046999.2,N
1593459475.7,286046999.0,N
1593459495.5,286046999.6,N
1593459515.4,286046998.8,N
1593459535.2,286046999.3,N
1593459555.0,286046998.4,N
1593459555.9,286046998.4,N
1593459575.8,286047001.2,N
1593459595.6,286047000.8,N
1593459615.5,286047001.1,N
1593459635.3,286047000.8,N
1593459655.1,286046998.6,N
1593459675.9,286046998.7,N
1593459695.7,286046998.5,N
1593459715.5,286046998.1,N
1593459735.4,286046999.3,N
1593459755.2,286046998.3,N
1593459775.1,286047001.0,N
1593459776.0,286047001.0,N
1593459795.8,286047000.7,N
1593459815.6,286047000.6,N
1593459835.5,286046999.7,N
1593459855.3,286047001.0,N
1593459875.1,286046998.3,N
1593459895.9,286047001.2,N
1593459915.7,286046998.6,N
1593459935.6,286046998.2,N
1593459955.4,286046998.5,N
1593459975.2,286046998.8,N
1593459995.1,286046998.5,N
1593459996.0,286046998.5,N
1593460015.8,286046998.6,N
1593460035.6,286047000.8,N
1593460055.5,286047001.2,N
1593460075.3,286046998.3,N
1593460095.2,286046998.1,N
1593460115.9,286047000.9,N
1593460135.7,286047000.5,N
1593460155.6,286047002.3,N
1593460175.4,286047001.9,N
1593460195.2,286047002.6,N
1593460215.1,286047002.0,N
1593460216.0,286047002.0,N
1593460235.8,286047001.7,N
1593460255.7,286047003.4,N
1593460275.5,286047003.2,N
1593460295.3,286047003.9,N
1593460315.2,286047003.9,N
1593460335.0,286047003.7,N
1593460335.9,286047003.7,N
1593460355.8,286047004.0,N
1593460375.6,286047001.3,N
1593460395.4,286047002.4,N
1593460415.3,286046999.8,N
1593460435.1,286046999.7,N
1593460436.0,286046999.7,N
1593460455.8,286047002.2,N
1593460475.7,286046999.8,N
1593460495.5,286047002.5,N
1593460515.3,286047001.3,N
1593460535.2,286047001.3,N
1593460555.0,286047004.0,N
1593460555.9,286047004.0,N
1593460575.8,286047004.4,N
1593460595.6,286047003.9,N
1593460615.4,286047004.1,N
1593460635.3,286047003.8,N
1593460655.1,286047003.6,N
1593460675.9,286047003.6,N
1593460695.7,286047003.3,N
1593460715.5,286047003.5,N
1593460735.4,286047003.8,N
1593460755.2,286047003.9,N
1593460775.0,286047003.2,N
1593460775.9,286047003.2,N
1593460795.8,286047004.0,N
